[[{"header":{"parameterUnit":"m.s-1","parameterCategory":1,"la1":30.2991,"la2":30.254,"lo1":-89.0895,"lo2":-89.0444,"dy":0.0017,"dx":0.0017,"nx":28,"ny":28,"refTime":"2025-12-10T09:00:00:Z","depth":0,"parameterNumber":2,"parameterNumberName":"U-component_of_WINDS"},"data":[0,0,0,0,0,0,0,0,0,0,0,0,0,0,0,0,0,0,0,0,0,0,0,0,0,0,0,0,0,0,0,0,0,0,0,0,0,0,0,0,0,0,0,0,0,0,0,0,0,0,0,0,0,0,0,0,0,0,4.3343,4.3344,0,4.3416,4.3417,4.3418,4.3402,4.34,4.3399,4.3398,4.3473,4.3476,4.3479,0,0,0,0,0,0,0,0,0,0,0,0,0,4.3192,4.3195,4.3343,4.3344,4.3345,4.3416,4.3417,4.3418,4.3402,4.34,4.3399,4.3397,4.3472,4.3476,4.348,0,0,0,0,0,0,0,0,0,0,0,0,0,4.3261,4.3196,4.3343,4.3346,4.3347,4.3416,4.3417,4.3418,4.3402,4.34,4.3398,4.3396,4.347,4.3475,4.348,4.3551,0,0,4.3495,4.3497,0,0,0,0,0,0,0,0,4.3257,4.3266,4.3344,4.3346,4.3347,4.3398,4.3391,4.3463,4.3403,4.3381,4.3398,4.3395,4.345,4.3456,4.3474,4.3555,4.3558,4.3495,4.3498,4.3501,4.3502,0,0,0,0,0,0,0,4.3252,4.3263,4.3372,4.3346,4.3347,4.3344,4.3351,4.3405,4.3426,4.3383,4.3382,4.3391,4.345,4.3469,4.3476,4.3559,4.3495,4.35,4.3503,4.3505,4.3704,4.3706,0,0,0,0,0,0,4.3246,4.3259,4.337,4.3374,4.3296,4.3348,4.3356,4.3383,4.3425,4.343,4.3392,4.339,4.3462,4.347,4.3478,4.3566,4.3501,4.3505,4.3508,4.3702,4.3705,4.3707,0,0,0,0,0,0,4.3243,4.3256,4.3367,4.3316,4.333,4.3353,4.3383,4.3386,4.3406,4.3432,4.3436,4.3409,4.3461,4.3471,4.3534,4.3568,4.3507,4.3512,4.3699,4.3703,4.3706,4.3741,0,0,0,0,0,0,4.3239,4.3255,4.3282,4.3317,4.3333,4.3421,4.3385,4.3389,4.3414,4.3411,4.3449,4.3453,4.346,4.3527,4.3539,4.3574,4.3516,4.3696,4.3701,4.3705,4.3737,4.3745,4.3753,0,0,0,0,0,4.3233,4.3289,4.3283,4.3297,4.3367,4.3423,4.3432,4.3439,4.3417,4.3445,4.3462,4.3452,4.3562,4.3533,4.3547,4.3584,4.3694,4.3699,4.3704,4.3733,4.3744,4.3752,0,0,0,0,0,0,4.3257,4.3293,4.3288,4.3356,4.3387,4.342,4.3455,4.3449,4.3486,4.3482,4.3489,4.3498,4.3562,4.3579,4.3545,4.3656,4.3625,4.3633,4.3643,4.3653,4.366,4.3655,4.352,0,0,0,0,0,4.327,4.3312,4.3341,4.3399,4.3414,4.3432,4.3456,4.3459,4.3491,4.3504,4.3526,4.3557,4.3599,4.3627,4.3667,4.3739,4.3748,4.3772,4.3779,4.3786,4.3793,4.3834,4.3846,4.3724,4.3724,4.3724,0,0,4.3297,4.3323,4.3348,4.3404,4.3428,4.3472,4.3443,4.349,4.3523,4.3511,4.3571,4.3589,4.3624,4.3692,4.3724,4.3709,4.3828,4.3792,4.3797,4.3801,4.3841,4.3852,4.3862,4.3728,4.3727,4.3727,0,0,4.337,4.3393,4.3444,4.3469,4.3505,4.3517,4.3529,4.3564,4.3575,4.3636,4.3628,4.3667,4.3739,4.3766,4.3788,4.3873,4.3865,4.3885,4.3926,4.3967,4.3976,4.3985,4.4016,4.4027,4.3892,4.3892,4.3892,0,4.34,4.3465,4.3471,4.352,4.3545,4.3536,4.3589,4.3613,4.366,4.3678,4.3661,4.3752,4.3775,4.385,4.3871,4.3889,4.3904,4.3881,4.3974,4.3983,4.3991,4.4021,4.4032,4.3895,4.3894,4.3894,4.3894,0,4.3501,4.3546,4.3583,4.363,4.366,4.371,4.3724,4.3753,4.3754,4.3768,4.383,4.3858,4.3904,4.3922,4.3923,4.3998,4.3988,4.3972,4.3941,4.4005,4.4033,4.4044,4.3898,4.3897,4.3897,4.3896,0,0,4.359,4.3641,4.3654,4.3676,4.3716,4.3752,4.3802,4.3847,4.3873,4.3906,4.3949,4.4011,4.3998,4.4023,4.4027,4.4062,4.4129,4.4043,4.4044,4.4059,4.4215,4.4227,4.424,4.4124,4.4126,4.4128,4.4212,0,4.3668,4.3757,4.3764,4.3844,4.3887,4.388,4.3924,4.3954,4.3968,4.4007,4.4023,4.4067,4.4045,4.4061,4.4095,4.4113,4.416,4.4107,4.4165,4.4167,4.4157,4.4254,4.4267,4.4345,4.4223,4.4225,4.4226,0,4.377,4.3807,4.3892,4.3927,4.3946,4.3985,4.4028,4.4065,4.4099,4.4107,4.4136,4.4136,4.4188,4.4155,4.4228,4.4192,4.4216,4.4229,4.4232,4.4238,4.4201,4.4265,4.437,4.4383,4.4244,4.4242,4.4241,0,4.3829,4.39,4.396,4.3979,4.4021,4.4049,4.4068,4.41,4.4128,4.4165,4.4183,4.4226,4.425,4.4284,4.4295,4.4269,4.4368,4.4336,4.4377,4.4377,4.4399,4.4398,4.4511,4.4413,4.4413,4.4413,4.4412,0,4.3915,4.3968,4.3987,4.4024,4.4083,4.4091,4.4149,4.4167,4.4195,4.4236,4.4233,4.4271,4.4283,4.4324,4.4333,4.4393,4.4404,4.4412,4.4414,4.4413,4.4413,4.443,4.4425,4.4416,4.4415,4.4414,4.4414,0,4.3991,4.4006,4.4071,4.4106,4.4117,4.4158,4.4189,4.4225,4.4239,4.4291,4.4303,4.4325,4.4373,4.4388,4.4445,4.4452,4.4523,4.4519,4.4511,4.4512,4.4553,4.4549,4.4683,4.4701,4.4589,4.459,4.4591,0,4.4046,4.4086,4.4126,4.4153,4.4173,4.4217,4.4245,4.4255,4.4284,4.4327,4.4358,4.4406,4.4444,4.4521,4.4543,4.4587,4.4586,4.4629,4.4592,4.4591,4.4588,4.4586,4.459,4.4637,4.4638,4.4639,4.4639,0,4.4142,4.4147,4.4188,4.4231,4.4265,4.43,4.4333,4.4356,4.437,4.4404,4.4453,4.4483,4.4542,4.459,4.4635,4.4655,4.4651,4.4651,4.4663,4.4663,4.4657,4.4662,4.4531,4.4648,4.4647,4.4646,4.4646,4.4646,4.421,4.4245,4.428,4.4325,4.4351,4.4383,4.4419,4.4438,4.4479,4.4528,4.4531,4.4585,4.4619,4.468,4.4702,4.4745,4.4732,4.4749,4.4754,4.4758,4.4762,4.465,4.4753,4.4753,4.4752,4.4752,4.4752,0,4.4306,4.4328,4.437,4.4417,4.4453,4.4445,4.4482,4.4513,4.456,4.4592,4.4631,4.4688,4.4734,4.476,4.4806,4.4836,4.4835,4.4848,4.4846,4.4851,4.477,4.4756,4.4848,4.4848,4.4848,4.4848,4.4848,4.4848,4.4361,4.4422,4.4432,4.4506,4.4528,4.458,4.4602,4.4632,4.4658,4.4722,4.476,4.4776,4.4806,4.4855,4.4898,4.4904,4.4922,4.4937,4.4942,4.4866,4.4856,4.4847,4.4833,4.494,4.494,4.5019,4.5019,4.502]},{"header":{"parameterUnit":"m.s-1","parameterCategory":1,"la1":30.2991,"la2":30.254,"lo1":-89.0895,"lo2":-89.0444,"dy":0.0017,"dx":0.0017,"nx":28,"ny":28,"refTime":"2025-12-10T09:00:00:Z","depth":0,"parameterNumber":3,"parameterNumberName":"V-component_of_WINDS"},"data":[0,0,0,0,0,0,0,0,0,0,0,0,0,0,0,0,0,0,0,0,0,0,0,0,0,0,0,0,0,0,0,0,0,0,0,0,0,0,0,0,0,0,0,0,0,0,0,0,0,0,0,0,0,0,0,0,0,0,1.2039,1.2039,0,1.2036,1.2036,1.2036,1.2028,1.2028,1.2028,1.2028,1.2023,1.2023,1.2023,0,0,0,0,0,0,0,0,0,0,0,0,0,1.2034,1.2034,1.2039,1.2039,1.2039,1.2036,1.2036,1.2036,1.2028,1.2028,1.2028,1.2028,1.2023,1.2023,1.2023,0,0,0,0,0,0,0,0,0,0,0,0,0,1.2034,1.2034,1.2039,1.2035,1.2035,1.2036,1.2036,1.2036,1.2028,1.2028,1.2028,1.2028,1.2023,1.2023,1.2023,1.2028,0,0,1.2023,1.2023,0,0,0,0,0,0,0,0,1.2034,1.2035,1.2036,1.2035,1.2035,1.2033,1.2033,1.2034,1.2029,1.2031,1.2028,1.2028,1.2026,1.2026,1.2026,1.2028,1.2028,1.2023,1.2023,1.2023,1.2023,0,0,0,0,0,0,0,1.2034,1.2035,1.2038,1.2036,1.2035,1.2032,1.2032,1.2033,1.203,1.2031,1.203,1.203,1.2026,1.2026,1.2026,1.2028,1.2023,1.2023,1.2023,1.2023,1.2031,1.2031,0,0,0,0,0,0,1.2035,1.2035,1.2038,1.2038,1.2034,1.2032,1.2032,1.2034,1.203,1.2029,1.203,1.2029,1.2026,1.2026,1.2026,1.203,1.2023,1.2023,1.2023,1.2031,1.2031,1.2031,0,0,0,0,0,0,1.2035,1.2036,1.2038,1.2036,1.2036,1.2033,1.2034,1.2034,1.2034,1.203,1.2029,1.2031,1.2026,1.2026,1.2027,1.2029,1.2023,1.2023,1.203,1.2031,1.2031,1.2039,0,0,0,0,0,0,1.2035,1.2036,1.2039,1.2036,1.2036,1.2041,1.2035,1.2034,1.2034,1.2033,1.203,1.2029,1.2026,1.2027,1.2027,1.2029,1.2023,1.203,1.203,1.2031,1.2039,1.204,1.2041,0,0,0,0,0,1.2035,1.2042,1.2039,1.204,1.204,1.2042,1.2041,1.2038,1.2034,1.2036,1.2033,1.2029,1.2029,1.2027,1.2027,1.203,1.203,1.203,1.2031,1.2038,1.2039,1.204,0,0,0,0,0,0,1.2045,1.2041,1.2039,1.2045,1.2043,1.204,1.2043,1.204,1.2039,1.2038,1.2033,1.2032,1.2034,1.2032,1.203,1.2033,1.2029,1.2029,1.2034,1.2035,1.2036,1.2037,1.2023,0,0,0,0,0,1.2048,1.205,1.2046,1.2052,1.2051,1.2047,1.2048,1.2045,1.2043,1.2042,1.2039,1.2037,1.2036,1.2036,1.2035,1.2038,1.2036,1.2039,1.204,1.2041,1.2041,1.204,1.2041,1.2032,1.2032,1.2032,0,0,1.2054,1.2052,1.2054,1.2054,1.2052,1.2053,1.2047,1.2049,1.2049,1.2042,1.2043,1.2041,1.2037,1.2039,1.204,1.2038,1.2043,1.2041,1.2042,1.2042,1.2041,1.2042,1.2042,1.2032,1.2032,1.2032,0,0,1.2065,1.2065,1.2068,1.2066,1.2064,1.2061,1.2062,1.2058,1.2056,1.2057,1.2052,1.2051,1.205,1.2047,1.2046,1.2052,1.2048,1.2052,1.2057,1.2056,1.2057,1.2058,1.2058,1.2059,1.2053,1.2053,1.2053,0,1.2073,1.2075,1.207,1.2072,1.2071,1.2065,1.2067,1.2065,1.2063,1.2062,1.2059,1.2056,1.2054,1.2054,1.2055,1.2054,1.2054,1.2053,1.2057,1.2058,1.2058,1.2059,1.206,1.2053,1.2053,1.2053,1.2053,0,1.2083,1.2084,1.2087,1.2085,1.2084,1.2086,1.2081,1.208,1.2076,1.2073,1.2072,1.2068,1.2066,1.2065,1.2062,1.2064,1.2062,1.2059,1.2054,1.206,1.206,1.2061,1.2054,1.2053,1.2053,1.2053,0,0,1.2103,1.2096,1.2097,1.2094,1.209,1.209,1.209,1.2088,1.2087,1.2084,1.2083,1.2081,1.2077,1.2075,1.2071,1.207,1.2073,1.2066,1.2066,1.2067,1.2073,1.2075,1.2076,1.207,1.207,1.207,1.2073,0,1.2112,1.2114,1.2108,1.2111,1.211,1.2103,1.2103,1.2099,1.2095,1.2093,1.2088,1.2086,1.2081,1.208,1.2079,1.2073,1.2074,1.2073,1.2068,1.2068,1.2069,1.2077,1.208,1.2082,1.2073,1.2073,1.2073,0,1.2124,1.2122,1.2124,1.2117,1.2117,1.2117,1.2113,1.2112,1.2106,1.2103,1.21,1.2094,1.2092,1.2088,1.2083,1.2083,1.208,1.2076,1.2076,1.2075,1.2071,1.2075,1.2083,1.2084,1.2074,1.2074,1.2074,0,1.2136,1.2134,1.2134,1.2132,1.2125,1.2125,1.2121,1.2116,1.2114,1.2109,1.2107,1.2103,1.21,1.2095,1.2088,1.2086,1.2084,1.2079,1.208,1.208,1.208,1.208,1.2087,1.2079,1.2079,1.2079,1.2079,0,1.2148,1.2149,1.2139,1.2139,1.214,1.2132,1.2132,1.2128,1.2123,1.212,1.2113,1.2111,1.2102,1.2098,1.2092,1.2088,1.2087,1.2083,1.2081,1.2084,1.2084,1.2082,1.2081,1.2079,1.2079,1.2079,1.2079,0,1.2162,1.2155,1.2155,1.2147,1.2145,1.2145,1.2138,1.2137,1.2131,1.2128,1.2127,1.2118,1.2113,1.2105,1.2098,1.2093,1.209,1.2088,1.2092,1.2091,1.2091,1.2091,1.2097,1.2097,1.2089,1.209,1.209,0,1.2169,1.217,1.2162,1.216,1.2157,1.2154,1.2151,1.2143,1.214,1.2132,1.2132,1.2126,1.2121,1.2112,1.2104,1.2098,1.2095,1.2097,1.2094,1.2095,1.2093,1.2093,1.2092,1.2098,1.2098,1.2098,1.2098,0,1.2183,1.2179,1.2176,1.2171,1.2168,1.2163,1.2159,1.2157,1.2147,1.2144,1.2139,1.2135,1.2126,1.212,1.2112,1.2106,1.21,1.2099,1.2099,1.2101,1.2103,1.2101,1.2094,1.2099,1.2099,1.2099,1.2099,1.2099,1.2193,1.2192,1.2186,1.2182,1.2177,1.2172,1.217,1.2163,1.2159,1.2152,1.2147,1.2141,1.2133,1.2121,1.2116,1.211,1.2107,1.2107,1.2107,1.2107,1.2107,1.2104,1.2108,1.2108,1.2108,1.2108,1.2108,0,1.2205,1.22,1.2196,1.2189,1.2185,1.218,1.2173,1.217,1.2165,1.2159,1.2153,1.2146,1.2138,1.2129,1.2121,1.2118,1.2114,1.2116,1.2116,1.2114,1.211,1.2111,1.2118,1.2118,1.2118,1.2118,1.2118,1.2118,1.2211,1.2209,1.2204,1.2198,1.2193,1.2188,1.2184,1.2178,1.2173,1.2165,1.2159,1.2153,1.2144,1.2134,1.2127,1.2124,1.2121,1.2123,1.2119,1.2116,1.2115,1.2114,1.2115,1.2123,1.2123,1.2123,1.2123,1.2123]}]]